Wind_Speed
2 3 3 2 2 2 3 3 3 2 2 2 1 1 1 1 1 1 1 1 1 1 1 1 1 1 1 1 1 1 1 1 1 1 1 2 1 1 1 1 1 1 2
2 3 3 3 3 2 2 2 2 2 2 1 1 1 1 0 0 0 0 1 1 0 0 1 1 0 0 1 1 1 1 1 1 2 2 3 3 3 3 3 3 2 2
3 3 3 3 3 3 3 2 3 3 2 2 2 2 2 1 1 1 1 1 1 1 1 1 2 2 2 2 1 1 1 2 2 2 3 3 3 4 4 4 3 3 3
3 3 4 4 4 4 4 3 4 4 4 3 3 3 3 2 2 2 2 2 2 2 2 2 3 3 3 3 3 3 2 2 3 3 3 3 3 3 4 4 4 4 3
5 5 5 6 5 5 5 5 5 5 4 4 4 4 3 3 3 3 3 3 3 3 3 3 4 4 4 4 4 4 4 3 3 3 3 3 3 4 4 4 4 5 5
6 6 6 6 6 6 7 6 6 6 6 6 6 5 4 4 4 4 5 5 5 4 4 5 5 5 5 5 5 5 5 5 5 5 5 5 5 5 5 6 6 6 6
6 7 7 7 7 7 7 7 7 7 7 6 6 6 6 6 6 6 6 6 6 6 6 6 6 7 7 7 6 6 6 6 6 6 6 6 7 7 7 7 7 7 8
7 8 8 8 7 7 7 8 8 9 8 7 7 7 7 7 7 8 8 8 8 8 8 8 8 8 8 8 8 8 8 8 8 7 7 8 8 8 9 9 9 9 9
9 9 9 9 9 8 9 9 9 9 9 9 9 9 9 9 9 9 9 9 9 10 10 10 10 10 10 10 10 10 10 10 9 9 9 9 10 10 10 10 10 10 11
10 10 10 10 11 10 10 10 10 11 11 11 11 11 10 10 10 10 11 11 11 11 11 12 12 12 12 12 12 12 12 11 11 11 11 11 11 11 11 11 11 12 12
11 11 12 11 11 11 11 11 12 12 12 12 12 12 12 12 12 12 12 12 12 12 13 13 13 13 13 13 13 13 13 13 13 13 13 13 13 13 13 12 12 13 13
12 12 13 13 13 12 12 12 12 12 12 13 14 14 14 14 14 14 13 14 14 14 14 14 14 15 15 15 14 15 15 15 15 15 15 16 16 15 15 15 15 15 15
12 13 13 13 13 12 12 12 12 12 13 14 15 15 15 16 16 16 16 15 16 17 17 17 17 17 17 17 16 16 16 16 17 17 17 18 18 18 17 17 17 17 17
12 13 13 13 14 13 13 13 13 14 14 14 15 16 17 17 17 17 17 18 19 19 20 20 20 20 20 20 19 18 18 18 19 19 19 19 20 20 20 19 19 20 20
13 12 13 14 14 14 14 13 14 14 14 14 15 16 17 18 18 18 19 20 21 22 22 22 23 23 22 22 22 22 21 21 21 21 21 21 21 21 22 21 22 22 22
14 14 13 14 14 15 15 15 15 15 15 15 16 16 17 17 18 19 20 20 21 22 22 23 23 23 24 24 24 24 24 24 23 23 23 23 23 23 23 23 24 24 24
15 15 15 15 15 15 16 16 16 16 17 17 17 17 17 18 19 19 19 20 20 20 21 22 23 23 23 24 24 25 25 25 24 24 25 25 25 25 26 25 25 26 26
16 16 17 17 16 16 16 17 17 18 18 18 18 18 19 19 20 20 19 20 20 20 20 21 22 22 23 25 25 26 26 26 26 26 26 27 27 27 27 27 27 27 27
17 17 18 18 18 17 18 18 18 18 18 19 19 19 20 21 21 21 21 21 21 21 22 22 23 24 25 25 25 25 26 27 27 27 28 28 28 29 29 28 28 29 29
18 18 19 18 18 18 18 18 18 18 19 20 21 21 21 21 21 21 21 21 22 22 23 23 24 25 25 25 26 25 26 27 28 29 29 29 29 30 30 31 31 31 32
18 19 19 19 19 18 18 18 19 19 20 21 21 22 22 22 22 22 22 22 23 23 24 25 26 26 26 26 27 28 28 29 29 29 30 30 31 32 32 32 33 34 34
19 19 19 19 19 20 20 20 21 21 21 21 21 21 21 22 23 23 23 24 24 24 25 26 27 28 28 28 28 29 30 30 31 31 33 33 34 34 35 35 35 36 36
19 19 20 20 20 21 20 21 21 21 22 22 21 22 22 23 24 24 25 25 26 26 27 28 28 29 29 29 30 31 32 33 33 34 35 35 35 36 37 37 37 37 38
19 19 20 21 21 21 20 21 21 21 21 22 23 23 24 24 24 25 26 26 27 28 29 30 30 30 31 31 32 33 33 34 34 35 36 37 37 37 38 38 38 39 40
20 21 21 21 20 20 20 21 22 22 23 23 23 24 25 26 26 27 28 28 29 29 30 31 31 32 33 33 34 35 35 36 36 36 37 38 38 38 38 39 39 40 41
20 21 21 20 21 22 22 23 23 24 24 25 25 25 26 27 29 30 30 30 30 31 31 32 33 33 35 35 36 36 36 36 36 36 37 38 39 40 39 39 40 41 42
Wind_Direction
168 168 165 148 140 145 144 143 150 158 163 163 150 135 138 130 106 59 46 53 65 83 92 78 97 105 74 57 54 33 6 355 344 328 318 298 292 278 265 277 287 281 265
192 196 186 188 181 174 172 168 180 191 208 215 215 198 184 178 74 44 359 340 314 294 273 264 225 254 321 350 355 347 325 309 312 302 293 284 279 276 276 276 279 279 266
224 223 212 209 203 202 208 208 208 213 222 232 240 238 245 252 267 269 264 287 286 276 280 271 258 269 277 289 301 311 316 311 306 297 294 287 280 276 277 273 272 270 259
245 247 248 238 225 224 220 223 226 230 234 239 249 249 249 256 271 275 274 279 276 264 266 274 274 282 285 289 290 289 294 297 301 302 291 284 283 282 277 277 271 269 257
256 255 264 258 243 238 235 236 239 240 237 244 253 248 250 259 271 277 279 282 278 266 268 272 276 286 296 299 297 292 290 292 292 293 292 289 286 284 279 281 270 264 256
261 264 269 263 253 247 247 247 245 246 246 247 250 247 254 262 263 268 275 278 282 281 276 274 278 284 290 293 288 287 288 293 292 288 287 289 288 285 277 279 275 266 261
262 268 272 268 255 252 253 255 254 254 252 255 254 252 256 259 262 265 269 273 278 281 281 278 279 283 283 284 283 283 287 290 291 290 289 286 284 283 278 274 275 269 266
260 269 272 272 268 263 262 265 263 262 256 258 255 254 258 261 265 266 269 270 273 276 277 278 280 281 281 282 281 280 281 284 286 287 284 284 284 282 278 276 275 272 269
264 269 272 274 273 268 264 264 263 261 260 260 256 256 258 259 263 267 268 268 271 272 274 276 279 283 284 283 280 279 279 280 282 282 282 282 282 281 279 277 277 274 273
266 270 272 277 277 271 267 268 265 261 262 263 262 259 258 259 264 267 269 270 272 273 273 275 277 278 280 281 281 280 279 278 279 279 279 280 281 282 280 278 275 276 275
268 272 274 278 279 274 270 267 267 266 264 263 264 262 260 261 263 266 268 270 271 272 274 275 277 277 278 279 281 281 281 280 279 278 278 277 278 278 280 277 276 275 273
272 273 276 279 283 281 277 272 268 268 265 265 266 266 265 263 266 266 267 269 271 273 275 275 276 277 276 278 280 281 281 281 279 277 276 276 275 275 276 274 274 274 272
276 273 275 280 284 285 280 276 271 268 267 267 267 268 268 267 267 268 268 270 271 272 274 274 275 277 277 277 279 281 280 280 279 278 275 274 274 274 275 272 272 273 273
277 279 279 277 280 283 281 276 271 271 270 270 268 267 266 268 268 268 269 271 271 273 274 273 274 277 277 278 278 278 279 279 279 279 276 275 274 275 275 273 272 272 273
280 281 279 277 278 278 279 279 276 272 272 273 272 270 269 269 269 270 272 273 273 273 273 274 275 276 276 278 276 276 277 278 278 278 278 278 275 274 275 275 274 274 274
282 282 280 279 280 279 277 277 278 276 277 277 277 274 273 272 271 273 276 276 276 274 271 274 277 277 278 276 275 276 277 278 278 277 276 276 273 273 274 275 276 275 275
280 279 278 279 280 280 280 279 279 278 279 278 278 276 275 276 276 277 279 279 278 276 274 275 277 279 280 279 279 277 276 277 278 277 277 277 274 273 273 274 275 275 275
278 279 277 276 276 278 280 279 280 281 280 278 277 278 277 276 277 277 279 280 278 278 278 278 280 281 281 282 281 278 277 276 276 276 276 277 276 274 274 273 273 274 274
276 276 276 275 275 277 279 280 280 280 278 277 278 279 280 281 278 279 280 278 278 278 279 279 280 281 281 283 283 282 281 280 280 278 278 278 277 276 275 274 274 274 273
276 278 277 276 277 277 278 279 280 280 279 278 279 279 280 281 280 279 280 280 279 279 280 279 280 281 282 282 283 284 283 283 282 281 281 281 279 278 276 275 273 273 274
280 279 279 277 276 278 277 278 279 281 281 280 281 281 279 279 279 280 280 279 279 279 280 281 282 283 282 283 283 283 284 284 284 282 281 281 279 279 278 278 276 275 274
279 279 278 278 276 277 277 277 279 283 283 283 282 281 280 279 279 279 279 279 280 281 281 281 283 283 283 283 284 284 285 285 283 283 283 282 281 280 278 277 276 276 276
278 281 281 280 279 280 279 279 281 284 284 285 284 283 281 279 280 280 281 282 281 282 283 283 283 285 284 282 283 283 284 285 285 284 284 285 284 282 280 279 278 277 277
278 281 284 284 283 280 278 280 282 284 285 285 284 283 281 280 280 281 282 283 283 284 284 284 283 284 284 284 284 284 285 285 286 285 284 283 282 283 282 281 280 279 279
278 282 285 285 282 279 279 280 282 284 285 285 284 283 282 283 283 283 283 283 283 284 284 285 284 284 283 284 285 285 285 285 285 285 285 283 281 282 282 282 282 281 282
281 282 283 282 280 279 280 281 282 284 286 287 287 286 284 284 285 284 284 284 284 284 285 286 286 286 286 286 287 286 286 286 285 285 285 284 283 283 283 282 281 282 281
Height
5912 5912 5912 5912 5912 5912 5912 5912 5912 5913 5913 5913 5913 5913 5913 5913 5913 5912 5912 5912 5912 5911 5911 5911 5910 5910 5910 5910 5909 5909 5909 5909 5909 5909 5909 5908 5908 5908 5908 5908 5907 5907 5907
5912 5912 5912 5912 5912 5912 5912 5912 5913 5913 5913 5913 5913 5913 5913 5913 5913 5913 5912 5912 5911 5911 5911 5911 5910 5910 5910 5910 5909 5909 5909 5909 5908 5908 5908 5908 5908 5907 5907 5907 5907 5907 5906
5913 5913 5913 5912 5912 5912 5912 5912 5912 5913 5913 5913 5913 5913 5913 5913 5913 5913 5912 5912 5911 5911 5911 5911 5911 5910 5910 5910 5909 5909 5908 5908 5908 5908 5907 5907 5907 5907 5906 5906 5906 5906 5906
5912 5913 5912 5912 5912 5912 5912 5912 5912 5912 5913 5913 5913 5913 5913 5913 5912 5912 5912 5912 5911 5911 5911 5911 5910 5910 5910 5909 5909 5908 5908 5908 5907 5907 5906 5906 5906 5906 5905 5905 5905 5905 5905
5912 5912 5912 5911 5911 5911 5911 5911 5912 5912 5912 5912 5912 5912 5912 5912 5912 5912 5912 5911 5911 5911 5910 5910 5910 5909 5909 5909 5908 5908 5907 5907 5907 5906 5906 5905 5905 5905 5904 5904 5904 5904 5904
5910 5910 5910 5910 5910 5910 5911 5911 5911 5911 5911 5911 5911 5911 5911 5911 5911 5911 5911 5911 5910 5910 5910 5909 5909 5909 5909 5908 5908 5907 5907 5906 5905 5905 5905 5904 5904 5904 5903 5903 5903 5903 5903
5909 5909 5909 5909 5909 5909 5909 5910 5910 5910 5910 5910 5910 5910 5910 5910 5910 5910 5910 5910 5910 5909 5909 5909 5908 5908 5908 5907 5907 5906 5906 5905 5905 5904 5903 5903 5903 5902 5902 5902 5901 5901 5901
5908 5908 5908 5908 5908 5908 5908 5908 5908 5908 5908 5909 5909 5909 5909 5910 5909 5909 5909 5909 5909 5908 5908 5907 5907 5907 5906 5906 5905 5905 5905 5904 5903 5903 5902 5902 5901 5901 5900 5900 5899 5899 5899
5906 5906 5906 5906 5906 5906 5906 5906 5906 5907 5907 5907 5907 5907 5907 5907 5907 5907 5907 5907 5907 5906 5906 5906 5905 5905 5904 5904 5904 5903 5903 5902 5902 5901 5900 5900 5899 5898 5898 5897 5897 5897 5897
5905 5904 5904 5904 5904 5904 5904 5904 5904 5904 5905 5905 5905 5905 5905 5905 5905 5905 5905 5905 5905 5904 5904 5904 5903 5903 5902 5902 5901 5901 5900 5900 5899 5899 5898 5897 5896 5896 5895 5895 5894 5894 5894
5903 5903 5902 5902 5902 5902 5902 5902 5902 5902 5902 5902 5902 5903 5903 5903 5902 5903 5903 5902 5902 5902 5901 5901 5901 5900 5900 5899 5898 5898 5897 5897 5896 5896 5895 5894 5893 5893 5892 5892 5891 5891 5890
5900 5901 5900 5900 5900 5899 5899 5899 5899 5899 5899 5899 5900 5900 5900 5900 5900 5900 5899 5899 5899 5899 5898 5898 5897 5897 5896 5896 5895 5895 5894 5893 5893 5892 5891 5890 5890 5889 5889 5888 5888 5887 5887
5898 5898 5898 5898 5897 5897 5896 5896 5896 5896 5896 5896 5897 5897 5897 5897 5896 5896 5896 5896 5895 5895 5895 5894 5894 5893 5892 5892 5891 5891 5890 5889 5888 5887 5887 5886 5885 5885 5884 5884 5883 5883 5883
5896 5896 5896 5895 5895 5894 5894 5893 5893 5893 5893 5893 5893 5893 5893 5893 5893 5892 5892 5892 5891 5891 5890 5890 5889 5888 5888 5887 5887 5886 5885 5885 5884 5883 5882 5881 5881 5880 5880 5879 5879 5878 5878
5893 5893 5893 5892 5892 5892 5891 5891 5890 5890 5890 5889 5889 5889 5889 5888 5888 5888 5887 5887 5887 5886 5885 5884 5884 5883 5882 5882 5881 5881 5880 5880 5878 5877 5877 5876 5875 5875 5874 5874 5873 5873 5872
5890 5890 5890 5890 5889 5889 5888 5888 5887 5887 5886 5886 5885 5885 5884 5884 5883 5883 5882 5881 5881 5880 5880 5879 5878 5877 5877 5876 5875 5875 5874 5873 5872 5872 5871 5870 5870 5869 5868 5868 5867 5867 5866
5887 5887 5887 5886 5886 5885 5885 5884 5884 5883 5883 5882 5881 5881 5880 5879 5879 5877 5876 5876 5875 5874 5874 5874 5873 5872 5871 5870 5869 5868 5867 5867 5866 5866 5865 5864 5863 5862 5862 5861 5860 5860 5859
5884 5883 5883 5883 5882 5882 5881 5880 5880 5879 5878 5878 5877 5876 5875 5874 5874 5873 5872 5871 5870 5870 5869 5868 5867 5866 5865 5864 5863 5862 5861 5860 5859 5859 5858 5857 5856 5855 5854 5854 5853 5852 5852
5880 5880 5880 5879 5878 5878 5877 5876 5876 5875 5874 5873 5872 5872 5871 5869 5869 5868 5867 5866 5865 5865 5864 5863 5862 5860 5859 5858 5856 5855 5854 5853 5852 5851 5850 5849 5848 5847 5847 5846 5845 5845 5844
5876 5876 5875 5875 5874 5874 5873 5872 5871 5870 5869 5868 5868 5867 5866 5864 5863 5862 5862 5861 5860 5859 5858 5857 5856 5855 5853 5851 5850 5849 5847 5846 5845 5843 5842 5842 5841 5839 5839 5838 5837 5836 5835
5872 5872 5871 5870 5870 5869 5869 5868 5867 5866 5865 5863 5862 5861 5860 5859 5858 5857 5856 5855 5854 5853 5852 5851 5850 5848 5847 5845 5843 5842 5840 5839 5837 5836 5834 5833 5832 5831 5830 5829 5828 5827 5826
5868 5867 5867 5866 5865 5865 5864 5863 5862 5861 5860 5858 5857 5856 5855 5854 5853 5851 5850 5849 5848 5847 5846 5844 5843 5841 5840 5838 5836 5834 5833 5831 5830 5828 5826 5824 5823 5822 5820 5820 5818 5817 5816
5864 5863 5863 5862 5861 5860 5859 5858 5857 5856 5855 5853 5851 5850 5849 5848 5847 5845 5844 5843 5842 5840 5839 5837 5836 5834 5832 5830 5828 5826 5825 5823 5821 5819 5817 5815 5813 5811 5809 5809 5808 5807 5805
5859 5858 5858 5857 5856 5855 5854 5853 5852 5851 5849 5848 5846 5844 5843 5842 5840 5839 5837 5836 5835 5833 5832 5830 5828 5826 5824 5822 5820 5818 5816 5814 5812 5810 5807 5805 5803 5801 5799 5797 5796 5795 5793
5855 5854 5853 5852 5851 5850 5849 5848 5847 5845 5844 5842 5840 5839 5837 5836 5834 5833 5831 5829 5827 5825 5823 5822 5820 5818 5815 5813 5811 5809 5807 5805 5802 5800 5797 5795 5793 5791 5789 5786 5785 5783 5780
5850 5849 5848 5847 5846 5845 5844 5842 5841 5839 5838 5836 5834 5832 5830 5829 5827 5825 5823 5821 5819 5817 5815 5814 5811 5809 5807 5804 5802 5800 5797 5794 5792 5790 5787 5784 5782 5779 5778 5775 5773 5770 5768